Bennington, VT

12:07 PM EDT on May 26, 2017 (GMT -0400)
Morse State

Weather History for KDDH - August, 2014

Change the Weather History Date:

Wednesday, August 20, 2014

  Actual Average Record
Temperature  
Mean Temperature 67 °F 66 °F  
Max Temperature 82 °F 77 °F 87 °F (2015)
Min Temperature 51 °F 55 °F 42 °F (2008)
Degree Days  
Heating Degree Days 0 1  
Month to date heating degree days 36 20  
Since 1 June heating degree days 94 141  
Since 1 July heating degree days 47 44  
Cooling Degree Days 2 3  
Month to date cooling degree days 30 72  
Year to date cooling degree days 232 267  
Since 1 June cooling degree days 216 253  
Growing Degree Days 16 (Base 50)    
Moisture  
Dew Point 58 °F    
Average Humidity 74    
Maximum Humidity 96    
Minimum Humidity 51    
Precipitation  
Precipitation 0.00 in 0.13 in 1.15 in (2006)
Month to date precipitation 0.96 2.72  
Year to date precipitation 25.07 26.26  
Sea Level Pressure  
Sea Level Pressure 29.98 in    
Wind  
Wind Speed 4 mph (SE)    
Max Wind Speed 9 mph    
Max Gust Speed 13 mph    
Visibility 10 miles    
Events      
T = Trace of Precipitation, MM = Missing Value Source: NWS Daily Summary

Daily Weather History Graph

Daily Weather History Graph

Search for Another Location

Airport or City:

Trip Planner

Search our weather history database for the weather conditions in past years. The results will help you decide how hot, cold, wet, or windy it might be!

Date:

Astronomy

Aug. 20, 2014 Rise Set
Actual Time 6:04 AM EDT 7:47 PM EDT
Civil Twilight 5:34 AM EDT 8:17 PM EDT
Nautical Twilight 4:57 AM EDT 8:53 PM EDT
Astronomical Twilight 4:18 AM EDT 9:33 PM EDT
Moon 1:39 AM EDT (8/20) 4:32 PM EDT (8/20)
Length of Visible Light 14h 43m
Length of Day
13h 42m
Waning Crescent, 21% of the Moon is Illuminated
Aug 20
Waning Crescent
Aug 25
New
Sep 2
First Quarter
Sep 8
Full
Sep 15
Last Quarter

Hourly Weather History & Observations

Time (EDT) Temp. Heat Index Dew Point Humidity Pressure Visibility Wind Dir Wind Speed Gust Speed Precip Events Conditions
12:54 AM 54.0 °F - 51.1 °F 90% 29.96 in 10.0 mi Calm Calm - N/A   Clear
1:54 AM 51.1 °F - 48.9 °F 92% 29.97 in 10.0 mi Calm Calm - N/A   Scattered Clouds
2:54 AM 52.0 °F - 50.0 °F 93% 29.96 in 10.0 mi Calm Calm - N/A   Clear
3:54 AM 52.0 °F - 50.0 °F 93% 29.96 in 10.0 mi Calm Calm - N/A   Clear
4:54 AM 54.0 °F - 51.1 °F 90% 29.96 in 10.0 mi Calm Calm - N/A   Clear
5:54 AM 52.0 °F - 50.0 °F 93% 29.97 in 10.0 mi NW 3.5 mph - N/A   Scattered Clouds
6:54 AM 54.0 °F - 52.0 °F 93% 30.00 in 10.0 mi SSE 4.6 mph - N/A   Partly Cloudy
7:54 AM 61.0 °F - 55.0 °F 81% 30.00 in 10.0 mi East 3.5 mph - N/A   Mostly Cloudy
8:54 AM 66.0 °F - 57.0 °F 73% 30.00 in 10.0 mi Calm Calm - N/A   Scattered Clouds
9:54 AM 70.0 °F - 59.0 °F 68% 30.00 in 10.0 mi Calm Calm - N/A   Mostly Cloudy
10:54 AM 75.0 °F - 62.1 °F 64% 30.00 in 10.0 mi Variable 4.6 mph - N/A   Partly Cloudy
11:54 AM 75.9 °F - 63.0 °F 64% 30.00 in 10.0 mi SSW 5.8 mph - N/A   Overcast
12:54 PM 78.1 °F - 63.0 °F 60% 29.99 in 10.0 mi Calm Calm - N/A   Scattered Clouds
1:54 PM 80.1 °F 81.5 °F 63.0 °F 56% 29.98 in 10.0 mi West 4.6 mph - N/A   Clear
2:54 PM 82.0 °F 83.1 °F 63.0 °F 52% 29.96 in 10.0 mi SE 5.8 mph - N/A   Clear
3:54 PM 81.0 °F 82.5 °F 64.0 °F 56% 29.96 in 10.0 mi SSW 4.6 mph - N/A   Clear
4:54 PM 81.0 °F 82.5 °F 64.0 °F 56% 29.97 in 10.0 mi ESE 8.1 mph - N/A   Scattered Clouds
5:54 PM 77.0 °F - 64.0 °F 64% 29.99 in 10.0 mi ESE 5.8 mph - N/A   Mostly Cloudy
6:54 PM 75.0 °F - 63.0 °F 66% 29.98 in 10.0 mi Calm Calm - N/A   Scattered Clouds
7:54 PM 73.9 °F - 62.1 °F 66% 29.99 in 10.0 mi ESE 5.8 mph - N/A   Overcast
8:54 PM 73.9 °F - 61.0 °F 64% 30.00 in 10.0 mi Variable 5.8 mph - N/A   Overcast
9:54 PM 70.0 °F - 62.1 °F 76% 30.00 in 10.0 mi North 3.5 mph - N/A   Overcast
10:54 PM 71.1 °F - 61.0 °F 70% 30.00 in 10.0 mi SE 5.8 mph - N/A   Overcast
11:54 PM 73.0 °F - 60.1 °F 64% 30.01 in 10.0 mi East 6.9 mph - N/A   Overcast